Location: Banska Bystrica
(0.0000°N, 19.1500°E)
Time: 01:13:05
(UTC+01:00)

CZ-2D R/B - Pass Details

Date: 19 February 2019
Orbit: 523 x 538 km, 97.4° (Epoch: 21 March)

Event Time Altitude Azimuth Distance (km) Brightness Sun altitude
Rises 19:24:20 0° 176° (S) 2,667 6.9 -21.3°
Reaches altitude 10° 19:26:29 10° 180° (S) 1,773 6.0 -21.9°
Maximum altitude 19:30:13 56° 258° (WSW) 631 3.9 -22.8°
Drops below altitude 10° 19:33:57 10° 337° (NNW) 1,756 6.0 -23.7°
Sets 19:36:04 0° 342° (NNW) 2,640 6.9 -24.2°
